User: anonymous   Login
Location: Detroit
(42.3310°N, 83.0460°W)
Time: 03:14:02
(UTC-04:00)
Language:

deb Explorer IX - Orbit

View from above orbital plane
View from above orbital plane
View from above satellite
View from above satellite

Ground track
Ground track

The orbit data is extracted from the following two-line orbital elements,

1    85U 61004C   24203.02113724  .00030056  00000-0  38410-2 0  9997
2    85  38.7375 183.0873 0260478 195.9768 163.2651 14.59719715145294
Epoch (UTC): 21 July 2024 00:30:26
Eccentricity: 0.0260478
inclination: 38.7375°
perigee height: 510 km
apogee height: 878 km
right ascension of ascending node: 183.0873°
argument of perigee: 195.9768°
revolutions per day: 14.59719715
mean anomaly at epoch: 163.2651°
orbit number at epoch: 14529

The dashed part of the orbit path shows where the satellite is in the earth's shadow,  

DLR